KB3UQE Weather Reports


time (UTC)temp
F
wind
direction
speed
knots
gust
knots
rain 1hr
in
rain 24hr
in
rain mn
in
humidity
%
barometer
mb
20260504043823 42 0.0 0.0 0.00 0.00 0.00 31 1011.9
20260504040822 42 0.0 0.0 0.00 0.00 0.00 30 1011.6
20260504033822 43 0.0 0.0 0.00 0.00 0.00 30 1011.3
20260504030822 44 0.0 0.0 0.00 0.00 0.00 30 1011.1
20260504024422 45 0.0 0.0 0.00 0.00 0.00 30 1011.1
20260504022023 46 0.0 0.0 0.00 0.00 0.00 30 1011.0
20260504015621 47 0.0 0.0 0.00 0.00 0.00 30 1011.0
20260504013220 48 0.0 0.0 0.00 0.00 0.00 29 1010.9
20260504010820 50 0.0 0.0 0.00 0.00 0.00 29 1010.6
20260504003820 53 0.0 0.0 0.00 0.00 0.00 29 1010.3
20260504000819 56 0.0 0.0 0.00 0.00 0.00 29 1009.9
20260503233819 60 0.0 0.0 0.00 0.00 0.00 28 1009.3
20260503231419 63 0.0 0.0 0.00 0.00 0.00 28 1009.1
20260503225319 64 0.0 0.0 0.00 0.00 0.00 28 1008.9
20260503222919 65 0.0 0.0 0.00 0.00 0.00 28 1008.3
20260503220818 65 0.0 0.0 0.00 0.00 0.00 27 1008.9
20260503214718 66 0.0 0.0 0.00 0.00 0.00 27 1009.0
20260503212618 68 0.0 0.0 0.00 0.00 0.00 26 1009.4
20260503210521 72 0.0 0.0 0.00 0.00 0.00 25 1013.9
20260503204123 67 0.0 0.0 0.00 0.00 0.00 26 1014.9
20260503202023 65 0.0 0.0 0.00 0.00 0.00 24 1012.6
20260503195623 65 0.0 0.0 0.00 0.00 0.00 24 1012.8
20260503193222 65 0.0 0.0 0.00 0.00 0.00 25 1013.1
20260503190838 67 0.0 0.0 0.00 0.00 0.00 22 1013.2
20260503190822 67 0.0 0.0 0.00 0.00 0.00 22 1013.2
20260503184438 73 0.0 0.0 0.00 0.00 0.00 20 1013.6
20260503184421 73 0.0 0.0 0.00 0.00 0.00 20 1013.6
20260503182021 69 0.0 0.0 0.00 0.00 0.00 20 1013.7
20260503175621 76 0.0 0.0 0.00 0.00 0.00 18 1013.8
20260503173220 81 0.0 0.0 0.00 0.00 0.00 17 1014.0
20260503170820 79 0.0 0.0 0.00 0.00 0.00 16 1014.3
20260503150819 82 0.0 0.0 0.00 0.00 0.00 16 1015.0
20260503131123 84 0.0 0.0 0.00 0.00 0.00 18 1015.1
20260503081102 88 0.0 0.0 0.00 0.00 0.00 28 1012.1
20260503080732 88 0.0 0.0 0.00 0.00 0.00 28 1011.9
20260503072301 89 0.0 0.0 0.00 0.00 0.00 27 1011.6
20260503071931 89 0.0 0.0 0.00 0.00 0.00 27 1011.5
20260503053155 91 0.0 0.0 0.00 0.00 0.00 27 1011.7